Location: *
(50.3440°N, 18.6237°E)
Time: 16:51:00
(UTC+00:00)

USA 215 - Pass Details

Date: 30 November 2020
Orbit: 1098 x 1110 km, 123.0° (Epoch: 14 January)

Event Time Altitude Azimuth Distance (km) Brightness Sun altitude
Exits shadow 17:43:41 63° 111° (ESE) 1,231 3.2 -27.5°
Maximum altitude 17:44:19 66° 142° (SE) 1,201 3.2 -27.6°
Drops below altitude 10° 17:50:51 10° 225° (SW) 2,969 6.0 -28.7°
Sets 17:53:21 0° 228° (SW) 3,925 6.8 -29.1°
